GW6466 Weather Reports


time (UTC)temp
F
wind
direction
speed
knots
gust
knots
rain 1hr
in
rain 24hr
in
rain mn
in
humidity
%
barometer
mb
20260505064158 36 245 5.2 7.0 0.00 0.00 0.00 95 744.0
20260505063658 36 194 8.7 9.6 0.00 0.00 0.00 95 744.0
20260505062708 36 267 0.9 1.7 0.00 0.00 0.00 95 745.0
20260505062158 36 198 3.5 6.1 0.00 0.00 0.00 95 745.0
20260505061658 36 221 7.0 7.8 0.00 0.00 0.00 95 745.0
20260505061158 36 213 7.0 9.6 0.00 0.00 0.00 95 745.0
20260505060659 36 212 4.3 7.0 0.00 0.00 0.00 95 745.0
20260505060200 36 217 0.9 1.7 0.00 0.00 0.00 94 745.0
20260505055658 36 245 0.0 0.0 0.00 0.00 0.18 94 745.0
20260505055158 36 223 0.0 0.0 0.00 0.00 0.18 94 745.0
20260505054658 36 229 0.0 0.0 0.00 0.00 0.18 94 745.0
20260505054158 36 218 0.0 0.0 0.00 0.00 0.18 94 745.0
20260505053658 36 223 0.0 0.0 0.00 0.00 0.18 94 745.0
20260505053158 36 268 0.0 0.0 0.00 0.00 0.18 94 745.0
20260505052658 36 217 0.0 0.0 0.00 0.00 0.18 94 745.0
20260505052158 36 239 0.0 0.0 0.00 0.00 0.18 94 745.0
20260505051659 36 239 0.0 0.0 0.00 0.00 0.18 94 745.0
20260505051158 36 239 0.0 0.0 0.00 0.00 0.18 94 745.0
20260505050658 36 239 0.0 0.0 0.00 0.00 0.18 94 745.0
20260505050200 36 239 0.0 0.0 0.00 0.00 0.18 94 745.0
20260505041658 37 73 0.9 1.7 0.05 0.00 0.18 93 746.0
20260505041158 36 205 0.0 0.0 0.12 0.00 0.17 93 745.0
20260505040658 36 20 0.0 0.0 0.12 0.00 0.16 93 746.0
20260505040158 37 34 0.0 0.0 0.19 0.00 0.15 93 746.0
20260505035658 37 35 0.0 0.0 0.12 0.00 0.14 93 746.0
20260505035159 37 352 0.9 6.1 0.05 0.00 0.12 93 745.0
20260505034658 38 346 0.0 0.0 0.12 0.00 0.12 93 745.0
20260505034158 38 34 0.9 1.7 0.07 0.00 0.11 93 745.0
20260505033658 38 46 0.0 0.0 0.00 0.00 0.10 93 745.0
20260505033159 38 1 0.9 1.7 0.00 0.00 0.10 93 745.0
20260505032658 38 10 0.0 0.0 0.00 0.00 0.10 92 745.0
20260505032158 38 359 0.0 0.0 0.00 0.00 0.10 92 745.0
20260505031700 38 214 0.0 0.0 0.00 0.00 0.10 92 745.0
20260505031158 38 200 0.0 1.7 0.00 0.00 0.10 92 745.0
20260505030658 38 155 0.0 0.9 0.00 0.00 0.10 92 745.0
20260505030200 38 56 0.0 1.7 0.05 0.00 0.10 91 745.0
20260505025701 38 28 0.0 1.7 0.05 0.00 0.10 91 745.0
20260505025200 38 194 0.9 4.3 0.00 0.00 0.09 91 745.0
20260505024658 39 179 2.6 4.3 0.00 0.00 0.09 90 745.0
20260505024158 38 59 0.9 4.3 0.00 0.00 0.09 89 745.0
20260505023658 38 32 0.0 2.6 0.07 0.00 0.09 89 745.0
20260505023159 39 14 0.9 2.6 0.19 0.00 0.09 88 745.0
20260505022658 39 356 0.9 1.7 0.19 0.00 0.08 86 745.0
20260505022200 39 118 1.7 2.6 0.07 0.00 0.06 86 745.0
20260505021659 39 242 2.6 5.2 0.00 0.00 0.05 85 745.0
20260505021158 39 175 2.6 2.6 0.00 0.00 0.05 85 745.0
20260505020700 39 205 3.5 5.2 0.00 0.00 0.05 85 745.0
20260505020158 39 188 2.6 4.3 0.00 0.00 0.05 85 745.0
20260505015658 39 187 2.6 2.6 0.00 0.00 0.05 85 744.0
20260505015158 39 203 3.5 5.2 0.00 0.00 0.05 85 745.0
20260505014658 39 180 1.7 2.6 0.00 0.00 0.05 85 745.0
20260505014158 39 225 1.7 1.7 0.00 0.00 0.05 86 745.0
20260505013658 39 121 2.6 5.2 0.00 0.00 0.05 86 745.0
20260505013158 39 137 5.2 6.1 0.00 0.00 0.05 87 744.0
20260505012659 39 51 1.7 1.7 0.00 0.00 0.05 88 745.0
20260505011712 39 118 3.5 4.3 0.00 0.00 0.05 87 745.0
20260505011159 39 118 4.3 6.1 0.00 0.00 0.05 86 745.0
20260505010659 40 115 1.7 2.6 0.00 0.00 0.05 86 745.0
20260505010158 40 118 0.0 1.7 0.00 0.00 0.05 86 745.0
20260505005700 40 115 6.1 7.0 0.00 0.00 0.05 85 745.0
20260505005200 40 240 1.7 2.6 0.00 0.00 0.05 86 744.0
20260505004658 41 217 0.0 0.0 0.00 0.00 0.05 87 745.0
20260505004158 40 243 0.0 0.0 0.00 0.00 0.05 87 745.0
20260505003658 40 48 0.0 0.9 0.00 0.00 0.05 87 745.0
20260505003159 41 197 0.0 0.9 0.00 0.00 0.05 87 745.0
20260505002658 40 210 0.0 1.7 0.00 0.00 0.05 87 745.0
20260505002158 40 35 1.7 2.6 0.00 0.00 0.05 87 745.0
20260505001658 40 21 0.9 5.2 0.00 0.00 0.05 86 745.0
20260505001158 40 6 2.6 6.1 0.00 0.00 0.05 86 745.0
20260505000658 40 8 5.2 7.8 0.05 0.00 0.05 84 745.0
20260505000158 40 301 2.6 6.1 0.00 0.00 0.04 83 745.0
20260504235658 40 299 4.3 7.0 0.00 0.00 0.04 82 745.0
20260504235158 41 255 4.3 6.1 0.00 0.00 0.04 82 745.0
20260504234658 41 350 1.7 1.7 0.00 0.00 0.04 80 745.0
20260504234158 42 330 4.3 6.1 0.07 0.00 0.04 78 745.0
20260504233658 41 343 9.6 13.9 0.19 0.00 0.04 79 745.0
20260504233158 41 28 6.1 8.7 0.07 0.00 0.02 78 745.0
20260504232658 42 67 4.3 7.0 0.05 0.00 0.01 74 744.0
20260504232158 44 359 2.6 7.0 0.05 0.00 0.01 70 744.0
20260504231658 45 350 4.3 9.6 0.00 0.00 0.00 63 744.0
20260504231158 47 48 4.3 9.6 0.00 0.00 0.00 57 744.0
20260504230658 48 348 7.0 9.6 0.00 0.00 0.00 52 744.0
20260504230159 51 39 8.7 13.0 0.00 0.00 0.00 45 743.0
20260504225659 52 73 5.2 11.3 0.00 0.00 0.00 41 743.0
20260504225159 52 117 9.6 13.0 0.00 0.00 0.00 41 743.0
20260504224658 53 43 2.6 9.6 0.00 0.00 0.00 42 743.0
20260504224158 53 48 7.0 8.7 0.00 0.00 0.00 40 743.0
20260504223658 53 16 2.6 5.2 0.00 0.00 0.00 40 743.0
20260504223159 53 160 2.6 4.3 0.00 0.00 0.00 40 743.0
20260504222658 53 109 4.3 7.0 0.00 0.00 0.00 40 743.0
20260504222159 54 87 7.0 12.2 0.00 0.00 0.00 39 743.0
20260504221659 53 132 2.6 6.1 0.00 0.00 0.00 40 743.0
20260504221158 53 168 5.2 6.1 0.00 0.00 0.00 40 743.0
20260504220658 53 157 4.3 8.7 0.00 0.00 0.00 40 743.0
20260504220159 53 133 7.0 8.7 0.00 0.00 0.00 40 743.0
20260504215700 54 124 4.3 7.8 0.00 0.00 0.00 41 744.0
20260504215158 55 88 0.9 1.7 0.00 0.00 0.00 40 743.0
20260504214658 55 138 1.7 2.6 0.00 0.00 0.00 38 743.0
20260504214158 55 158 4.3 6.1 0.00 0.00 0.00 39 743.0
20260504213658 54 176 4.3 9.6 0.00 0.00 0.00 41 744.0
20260504213158 54 162 3.5 5.2 0.00 0.00 0.00 41 744.0
20260504212659 53 175 4.3 7.8 0.00 0.00 0.00 41 744.0
20260504212200 52 107 8.7 11.3 0.00 0.00 0.00 42 744.0
20260504211658 53 118 3.5 7.8 0.00 0.00 0.00 41 744.0
20260504211159 53 122 5.2 7.8 0.00 0.00 0.00 41 744.0
20260504210658 54 113 5.2 8.7 0.00 0.00 0.00 42 743.0
20260504210158 54 265 2.6 6.1 0.00 0.00 0.00 40 743.0
20260504205658 54 73 7.0 8.7 0.00 0.00 0.00 39 743.0
20260504205158 54 79 8.7 11.3 0.00 0.00 0.00 39 744.0
20260504204658 54 78 3.5 7.8 0.00 0.00 0.00 40 744.0
20260504204158 55 72 1.7 6.1 0.00 0.00 0.00 37 744.0
20260504203659 54 56 2.6 2.6 0.00 0.00 0.00 36 744.0
20260504203159 54 35 1.7 7.8 0.00 0.00 0.00 39 744.0
20260504202658 56 36 5.2 8.7 0.00 0.00 0.00 38 744.0
20260504202203 54 126 0.9 7.0 0.00 0.00 0.00 40 744.0
20260504201658 54 127 5.2 11.3 0.00 0.00 0.00 37 744.0
20260504201158 55 45 2.6 9.6 0.00 0.00 0.00 38 744.0
20260504200658 54 15 7.0 11.3 0.00 0.00 0.00 40 744.0
20260504200158 54 31 9.6 13.9 0.00 0.00 0.00 38 744.0
20260504195659 54 31 7.0 13.9 0.00 0.00 0.00 39 744.0
20260504195158 53 29 7.8 17.4 0.00 0.00 0.00 39 744.0
20260504194659 58 22 5.2 7.8 0.00 0.00 0.00 34 744.0
20260504194200 56 228 1.7 6.1 0.00 0.00 0.00 31 744.0
20260504193658 56 280 5.2 13.0 0.00 0.00 0.00 32 744.0
20260504193159 56 198 3.5 5.2 0.00 0.00 0.00 29 744.0
20260504192659 58 209 7.0 8.7 0.00 0.00 0.00 29 744.0
20260504192158 57 202 0.9 5.2 0.00 0.00 0.00 28 744.0
20260504191658 60 249 10.4 12.2 0.00 0.00 0.00 27 744.0
20260504191159 57 251 7.8 8.7 0.00 0.00 0.00 29 744.0
20260504190658 57 228 8.7 11.3 0.00 0.00 0.00 31 744.0
20260504190159 58 210 7.0 8.7 0.00 0.00 0.00 31 744.0
20260504185701 57 251 7.8 11.3 0.00 0.00 0.00 31 744.0
20260504185159 57 311 6.1 7.0 0.00 0.00 0.00 32 744.0
20260504184658 56 210 4.3 8.7 0.00 0.00 0.00 33 744.0
20260504184158 52 259 5.2 11.3 0.00 0.00 0.00 37 744.0
20260504183658 53 233 9.6 11.3 0.00 0.00 0.00 36 744.0
20260504183159 54 225 10.4 13.0 0.00 0.00 0.00 34 744.0
20260504182659 58 258 4.3 8.7 0.00 0.00 0.00 28 744.0
20260504182202 58 293 6.1 8.7 0.00 0.00 0.00 29 744.0
20260504181659 57 231 7.0 9.6 0.00 0.00 0.00 26 744.0
20260504181158 59 293 1.7 14.8 0.00 0.00 0.00 27 744.0
20260504180658 58 308 1.7 7.0 0.00 0.00 0.00 28 744.0
20260504180158 56 133 4.3 6.1 0.00 0.00 0.00 29 744.0
20260504175659 56 198 3.5 7.8 0.00 0.00 0.00 29 744.0
20260504175159 53 278 2.6 4.3 0.00 0.00 0.00 33 745.0
20260504174659 51 232 2.6 4.3 0.00 0.00 0.00 36 745.0
20260504174159 52 206 1.7 8.7 0.00 0.00 0.00 37 745.0
20260504173659 53 234 5.2 12.2 0.00 0.00 0.00 34 745.0
20260504173158 54 279 4.3 11.3 0.00 0.00 0.00 32 745.0
20260504172658 54 247 7.0 8.7 0.00 0.00 0.00 32 745.0
20260504172158 54 208 7.0 9.6 0.00 0.00 0.00 33 745.0
20260504171658 54 210 9.6 13.0 0.00 0.00 0.00 33 745.0
20260504171200 53 214 7.8 12.2 0.00 0.00 0.00 33 745.0
20260504170701 53 203 7.8 8.7 0.00 0.00 0.00 33 745.0
20260504170159 53 253 4.3 7.8 0.00 0.00 0.00 33 745.0
20260504160158 53 270 5.2 9.6 0.00 0.00 0.00 37 745.0
20260504150658 50 354 5.2 8.7 0.00 0.00 0.00 37 746.0
20260504150200 50 245 7.0 9.6 0.00 0.00 0.00 37 746.0
20260504141159 46 227 2.6 7.0 0.00 0.00 0.00 42 746.0
20260504140658 46 228 2.6 7.8 0.00 0.00 0.00 42 746.0
20260504140159 46 217 1.7 5.2 0.00 0.00 0.00 43 746.0
20260504130659 39 221 2.6 4.3 0.00 0.00 0.00 49 746.0
20260504130159 38 225 3.5 4.3 0.00 0.00 0.00 50 746.0
20260504110658 42 225 4.3 5.2 0.00 0.00 0.00 43 745.0
20260504110158 41 207 4.3 5.2 0.00 0.00 0.00 44 746.0
20260504100159 39 218 4.3 5.2 0.00 0.00 0.00 49 746.0
20260504081700 40 218 1.7 2.6 0.00 0.00 0.00 48 746.0
20260504081158 38 227 3.5 4.3 0.00 0.00 0.00 51 746.0
20260504080658 37 225 4.3 5.2 0.00 0.00 0.00 53 746.0
20260504080158 37 217 4.3 6.1 0.00 0.00 0.00 54 746.0
20260504070158 40 233 4.3 5.2 0.00 0.00 0.00 50 747.0